Location: Newark
(37.1692°N, 95.2017°W)
Time: 04:33:08
(UTC+00:00)

ISS - Visible Passes

Search period start: 25 January 2020 00:00
Search period end: 04 February 2020 00:00
Orbit: 415 x 423 km, 51.6° (Epoch: 25 January)

Date Brightness Start Highest point End Pass type
(mag) Time Alt. Az. Time Alt. Az. Time Alt. Az.
25 Jan -1.2 01:12:28 10° NW 01:14:00 12° NNW 01:14:51 12° N visible
26 Jan -1.4 00:23:59 10° WNW 00:26:15 17° NNW 00:28:32 10° NNE visible
02 Feb -1.1 01:21:46 10° N 01:22:09 11° N 01:22:09 11° N visible
03 Feb -1.3 00:35:16 10° NNE 00:35:32 10° NNE 00:35:47 10° NNE visible
